Weather History for KCVN - November, 2012

Change the Weather History Date:

Thursday, November 29, 2012

  Actual Average Record
Temperature  
Mean Temperature 55 °F -  
Max Temperature 71 °F 53 °F 78 °F (1950)
Min Temperature 39 °F 27 °F 5 °F (1976)
Degree Days  
Heating Degree Days 10    
Growing Degree Days 5 (Base 50)    
Moisture  
Dew Point 27 °F    
Average Humidity 37    
Maximum Humidity 61    
Minimum Humidity 18    
Precipitation  
Precipitation 0.00 in - - ()
Sea Level Pressure  
Sea Level Pressure 30.10 in    
Wind  
Wind Speed 13 mph (WSW)    
Max Wind Speed 23 mph    
Max Gust Speed 29 mph    
Visibility 10 miles    
Events      
Averages and records for this station are not official NWS values.
T = Trace of Precipitation, MM = Missing Value Source: NWS Daily Summary

Daily Weather History Graph

Daily Weather History Graph

Search for Another Location

Airport or City:

Trip Planner

Search our weather history database for the weather conditions in past years. The results will help you decide how hot, cold, wet, or windy it might be!

Date:

Astronomy

Nov. 29, 2012 Rise Set
Actual Time 6:39 AM MST 4:42 PM MST
Civil Twilight 6:11 AM MST 5:09 PM MST
Nautical Twilight 5:40 AM MST 5:40 PM MST
Astronomical Twilight 5:10 AM MST 6:11 PM MST
Moon 5:47 PM MST (11/29) 7:27 AM MST (11/29)
Length of Visible Light 10h 57m
Length of Day
10h 02m
Full, 99% of the Moon is Illuminated
Nov 29
Full
Dec 6
Last Quarter
Dec 13
New
Dec 19
First Quarter
Dec 28
Full

Hourly Weather History & Observations

Time (MST) Temp. Windchill Dew Point Humidity Pressure Visibility Wind Dir Wind Speed Gust Speed Precip Events Conditions
12:15 AM 44.6 °F 40.2 °F 28.4 °F 53% 30.17 in 10.0 mi SW 8.1 mph - N/A   Clear
12:35 AM 44.6 °F 41.4 °F 28.4 °F 53% 30.18 in 10.0 mi SW 5.8 mph - N/A   Clear
12:55 AM 44.6 °F 41.4 °F 28.4 °F 53% 30.17 in 10.0 mi WSW 5.8 mph - N/A   Clear
1:15 AM 44.6 °F 40.2 °F 28.4 °F 53% 30.16 in 10.0 mi WSW 8.1 mph - N/A   Clear
1:35 AM 44.6 °F 38.1 °F 28.4 °F 53% 30.15 in 10.0 mi WSW 13.8 mph - N/A   Clear
1:55 AM 44.6 °F 37.8 °F 28.4 °F 53% 30.16 in 10.0 mi West 15.0 mph - N/A   Clear
2:15 AM 44.6 °F 38.8 °F 28.4 °F 53% 30.16 in 10.0 mi WSW 11.5 mph - N/A   Clear
2:35 AM 42.8 °F 37.5 °F 28.4 °F 57% 30.15 in 10.0 mi SW 9.2 mph - N/A   Clear
2:55 AM 39.2 °F 32.5 °F 26.6 °F 61% 30.15 in 10.0 mi SW 10.4 mph - N/A   Clear
3:15 AM 41.0 °F 34.3 °F 28.4 °F 61% 30.13 in 10.0 mi SW 11.5 mph - N/A   Clear
3:35 AM 42.8 °F 37.0 °F 28.4 °F 57% 30.13 in 10.0 mi WSW 10.4 mph - N/A   Clear
3:55 AM 42.8 °F 36.2 °F 28.4 °F 57% 30.12 in 10.0 mi WSW 12.7 mph - N/A   Clear
4:15 AM 44.6 °F 37.2 °F 30.2 °F 57% 30.12 in 10.0 mi West 17.3 mph - N/A   Clear
4:35 AM 44.6 °F 37.4 °F 28.4 °F 53% 30.12 in 10.0 mi WSW 16.1 mph - N/A   Clear
4:55 AM 42.8 °F 35.8 °F 28.4 °F 57% 30.11 in 10.0 mi WSW 13.8 mph - N/A   Clear
5:15 AM 42.8 °F 36.2 °F 28.4 °F 57% 30.11 in 10.0 mi WSW 12.7 mph - N/A   Clear
5:35 AM 42.8 °F 35.4 °F 28.4 °F 57% 30.11 in 10.0 mi WSW 15.0 mph - N/A   Clear
5:55 AM 42.8 °F 34.8 °F 28.4 °F 57% 30.11 in 10.0 mi WSW 17.3 mph - N/A   Clear
6:15 AM 42.8 °F 34.8 °F 30.2 °F 61% 30.12 in 10.0 mi WSW 17.3 mph - N/A   Clear
6:35 AM 42.8 °F 35.4 °F 28.4 °F 57% 30.12 in 10.0 mi WSW 15.0 mph - N/A   Clear
6:55 AM 41.0 °F 33.9 °F 28.4 °F 61% 30.12 in 10.0 mi WSW 12.7 mph - N/A   Clear
7:15 AM 41.0 °F 33.9 °F 28.4 °F 61% 30.12 in 10.0 mi WSW 12.7 mph - N/A   Clear
7:35 AM 42.8 °F 35.4 °F 30.2 °F 61% 30.12 in 10.0 mi WSW 15.0 mph - N/A   Clear
7:55 AM 46.4 °F 39.8 °F 30.2 °F 53% 30.13 in 10.0 mi WSW 16.1 mph - N/A   Clear
8:15 AM 48.2 °F - 32.0 °F 54% 30.13 in 10.0 mi WSW 18.4 mph - N/A   Clear
8:35 AM 50.0 °F - 33.8 °F 54% 30.13 in 10.0 mi WSW 17.3 mph - N/A   Clear
9:15 AM 53.6 °F - 32.0 °F 44% 30.14 in 10.0 mi WSW 15.0 mph - N/A   Clear
9:35 AM 55.4 °F - 32.0 °F 41% 30.14 in 10.0 mi WSW 15.0 mph - N/A   Clear
9:55 AM 57.2 °F - 33.8 °F 41% 30.13 in 10.0 mi WSW 15.0 mph - N/A   Clear
10:15 AM 60.8 °F - 33.8 °F 36% 30.13 in 10.0 mi WSW 16.1 mph - N/A   Clear
10:35 AM 62.6 °F - 30.2 °F 30% 30.13 in 10.0 mi West 18.4 mph 26.5 mph N/A   Clear
10:55 AM 64.4 °F - 30.2 °F 28% 30.12 in 10.0 mi West 20.7 mph 26.5 mph N/A   Clear
11:15 AM 66.2 °F - 30.2 °F 26% 30.11 in 10.0 mi West 21.9 mph - N/A   Clear
11:35 AM 66.2 °F - 30.2 °F 26% 30.10 in 10.0 mi West 19.6 mph 26.5 mph N/A   Clear
11:55 AM 68.0 °F - 30.2 °F 24% 30.09 in 10.0 mi West 23.0 mph 26.5 mph N/A   Clear
12:15 PM 68.0 °F - 30.2 °F 24% 30.08 in 10.0 mi West 21.9 mph 27.6 mph N/A   Clear
12:35 PM 69.8 °F - 30.2 °F 23% 30.08 in 10.0 mi West 21.9 mph 25.3 mph N/A   Clear
12:55 PM 69.8 °F - 28.4 °F 21% 30.07 in 10.0 mi West 15.0 mph - N/A   Clear
1:15 PM 69.8 °F - 30.2 °F 23% 30.06 in 10.0 mi West 19.6 mph - N/A   Clear
1:35 PM 69.8 °F - 28.4 °F 21% 30.05 in 10.0 mi West 19.6 mph 28.8 mph N/A   Clear
1:55 PM 71.6 °F - 28.4 °F 20% 30.05 in 10.0 mi West 20.7 mph - N/A   Clear
2:15 PM 71.6 °F - 28.4 °F 20% 30.05 in 10.0 mi West 19.6 mph 24.2 mph N/A   Clear
2:35 PM 71.6 °F - 28.4 °F 20% 30.04 in 10.0 mi West 15.0 mph 24.2 mph N/A   Clear
2:55 PM 71.6 °F - 28.4 °F 20% 30.04 in 10.0 mi West 19.6 mph 23.0 mph N/A   Clear
3:15 PM 71.6 °F - 28.4 °F 20% 30.04 in 10.0 mi West 18.4 mph - N/A   Clear
3:35 PM 71.6 °F - 26.6 °F 19% 30.04 in 10.0 mi West 16.1 mph - N/A   Clear
3:55 PM 69.8 °F - 26.6 °F 20% 30.04 in 10.0 mi West 15.0 mph - N/A   Clear
4:15 PM 69.8 °F - 24.8 °F 18% 30.04 in 10.0 mi West 16.1 mph - N/A   Clear
4:35 PM 66.2 °F - 23.0 °F 19% 30.05 in 10.0 mi West 13.8 mph - N/A   Clear
4:55 PM 64.4 °F - 21.2 °F 19% 30.05 in 10.0 mi West 15.0 mph - N/A   Clear
5:15 PM 62.6 °F - 21.2 °F 20% 30.05 in 10.0 mi West 13.8 mph - N/A   Clear
5:35 PM 59.0 °F - 19.4 °F 22% 30.06 in 10.0 mi West 11.5 mph - N/A   Clear
5:55 PM 57.2 °F - 19.4 °F 23% 30.06 in 10.0 mi West 8.1 mph - N/A   Clear
6:15 PM 57.2 °F - 19.4 °F 23% 30.07 in 10.0 mi West 9.2 mph - N/A   Clear
6:35 PM 55.4 °F - 19.4 °F 25% 30.08 in 10.0 mi West 11.5 mph - N/A   Clear
6:55 PM 55.4 °F - 19.4 °F 25% 30.08 in 10.0 mi West 9.2 mph - N/A   Clear
7:15 PM 55.4 °F - 19.4 °F 25% 30.08 in 10.0 mi West 12.7 mph - N/A   Clear
7:35 PM 57.2 °F - 21.2 °F 25% 30.07 in 10.0 mi West 12.7 mph - N/A   Clear
7:55 PM 57.2 °F - 21.2 °F 25% 30.07 in 10.0 mi West 16.1 mph - N/A   Clear
8:15 PM 59.0 °F - 23.0 °F 25% 30.07 in 10.0 mi West 20.7 mph - N/A   Clear
8:35 PM 57.2 °F - 21.2 °F 25% 30.07 in 10.0 mi West 17.3 mph 24.2 mph N/A   Clear
8:55 PM 57.2 °F - 21.2 °F 25% 30.07 in 10.0 mi West 16.1 mph - N/A   Clear
9:15 PM 57.2 °F - 23.0 °F 27% 30.08 in 10.0 mi West 16.1 mph - N/A   Clear
9:35 PM 55.4 °F - 23.0 °F 29% 30.07 in 10.0 mi West 15.0 mph - N/A   Clear
9:55 PM 55.4 °F - 23.0 °F 29% 30.07 in 10.0 mi West 18.4 mph 23.0 mph N/A   Clear
10:15 PM 53.6 °F - 23.0 °F 30% 30.07 in 10.0 mi West 16.1 mph 24.2 mph N/A   Clear
10:35 PM 53.6 °F - 23.0 °F 30% 30.07 in 10.0 mi West 17.3 mph - N/A   Clear
10:55 PM 51.8 °F - 21.2 °F 30% 30.08 in 10.0 mi West 16.1 mph - N/A   Clear
11:15 PM 51.8 °F - 23.0 °F 33% 30.08 in 10.0 mi West 17.3 mph - N/A   Clear
11:35 PM 51.8 °F - 23.0 °F 33% 30.07 in 10.0 mi West 18.4 mph - N/A   Clear
11:55 PM 50.0 °F - 21.2 °F 32% 30.07 in 10.0 mi West 16.1 mph - N/A   Clear